Location: Beacon Field Observatory
(38.7700°N, 77.0829°W)
Time: 18:12:54
(UTC-05:00)

FALCONSAT 3 - Visible Passes

Search period start: 06 December 2019 00:00
Search period end: 16 December 2019 00:00
Orbit: 453 x 457 km, 35.4° (Epoch: 05 December)

Date Brightness Start Highest point End Pass type
(mag) Time Alt. Az. Time Alt. Az. Time Alt. Az.
06 Dec ? 04:29:14 15° ESE 04:29:14 15° ESE 04:30:10 10° ESE visible
06 Dec ? 06:02:53 15° WSW 06:05:37 48° S 06:09:07 10° E visible
07 Dec ? 05:27:40 42° SSW 05:28:19 47° S 05:31:49 10° E visible
08 Dec ? 04:52:24 29° ESE 04:52:24 29° ESE 04:54:30 10° E visible
08 Dec ? 06:26:10 10° W 06:29:38 42° S 06:33:05 10° ESE visible
09 Dec ? 04:17:04 11° E 04:17:04 11° E 04:17:10 10° E visible
09 Dec ? 05:50:43 26° WSW 05:52:19 44° S 05:55:48 10° ESE visible
10 Dec ? 05:15:22 44° SSE 05:15:22 44° SSE 05:18:30 10° ESE visible
11 Dec ? 04:40:01 19° ESE 04:40:01 19° ESE 04:41:12 10° ESE visible
11 Dec ? 06:13:40 12° WSW 06:16:12 24° SSW 06:19:10 10° SE visible
12 Dec ? 05:38:19 25° SW 05:38:54 26° SSW 05:41:57 10° SE visible
13 Dec ? 05:02:59 21° SSE 05:02:59 21° SSE 05:04:44 10° SE visible
15 Dec ? 05:26:04 10° SSW 05:26:04 10° SSW 05:26:20 10° S visible
